Location: Big Grizzly Flat
(37.7238°N, 119.8788°W)
Time: 07:07:29
(UTC+00:00)

Daily predictions for brighter satellites

Satellite Brightness Start Highest point End
(mag) Time Altitude Azimuth Time Altitude Azimuth Time Altitude Azimuth
Cosmos 1486 Rocket 4.2 12:00:43 10° SSW 12:05:55 78° ESE 12:11:08 10° NNE
DMSP B5D2-2 4.0 12:03:02 10° S 12:08:14 76° WSW 12:13:29 10° NNW
Lacrosse 5 rocket 1.1 12:06:18 10° NW 12:10:15 69° SW 12:13:59 10° SSE
Nadezhda 3 Rocket 4.1 12:05:18 10° NNW 12:11:36 65° W 12:17:49 10° S
RESURS DK-1 2.2 12:08:01 10° NNW 12:12:05 74° WSW 12:16:07 10° SSE
ATLAS CENTAUR R/B 2.4 12:10:53 10° S 12:14:03 34° ESE 12:17:16 10° NE
SJ 16-02 3.3 12:11:55 10° W 12:14:20 15° WNW 12:16:45 10° NNW
Cosmos 2341 Rocket 4.4 12:08:29 10° S 12:14:43 71° E 12:20:56 10° NNE
Cosmos 2322 Rocket 2.9 12:10:36 10° NW 12:15:31 32° WSW 12:20:27 10° SSW
IRS-1D 3.9 12:11:26 10° N 12:16:35 51° WNW 12:21:41 10° SW
ALOS 4.3 12:15:10 10° NW 12:16:38 11° WNW 12:18:05 10° W
OAO 3 Rocket 3.3 12:12:12 10° W 12:17:01 60° S 12:21:46 10° ESE
Cosmos 2297 Rocket 3.8 12:14:54 10° SSE 12:19:57 35° ESE 12:25:01 10° NE
ASTEX 1 3.7 12:16:58 10° SSW 12:21:44 47° W 12:26:29 10° NNW
